Showing default

LONGJIANG 3, 56874

Orbit data source: Space-Track

LONGJIANG 3, 56874 is a payload satellite owned by Harbin (CN) in LEO that was launched on Fri, 09 Jun 2023 UTC via a KUAIZHOU-1A launch vehicle from the Jiuquan Satellite Launch Center, China (JSC). Payload-class satellites include a variety of spacecraft equipped with specific instruments for various scientific and technological missions. These include communications satellites like Starlink; space stations such as the ISS; scientific satellites like the Hubble; Earth observation satellites from companies like Planet Labs, Umbra, and HawkEye 360; GPS; miniature CubeSats for education and research; and military/defense satellites.

Loading next visibility...
Identifier
56874, 2023-082A
Orbit
LEO
Country
Flag of CNCN / PRC
Related business
Manufacturer
HITSAT
Mission
Operational Amateur Communications
Bus & Motor
SATWARE-CS200, Unknown motor
Mass
~120 kg wet, ~120 kg dry
Launch date (UTC)
2023-06-09 (2 years ago)
Launch vehicle
KUAIZHOU-1A
Launch site
Jiuquan Satellite Launch Center, China (JSC)
Object type
Payload
Rocket body
Debris
Shape & HBR
Box, 0.8 m
Radar Cross Section
2.000 m², Medium (>0.1 m² and < 1m²)

Expand to show TLE details & history
Last TLE update: 15 hours ago

TLE from 15 hours ago
0 LONGJIANG 3
1 56874U 23082A   25260.28258361  .00013583  00000-0  48088-3 0  9996
2 56874  49.1125   1.6566 0008555 267.7759  92.2206 15.29307704127418
Epoch: 2025-09-17T06:46Z
TLE epoch observation values (Epoch: 2025-09-17T06:46:55.223Z)
Latitude
-0.00007°
Longitude
-96.53432°
Altitude
478.57 km
Speed
7.628 km/s
True Right ascension
00h 06m 37s
True Declination
0° 00' 00"
Sunlit
Object was in full shadow at epoch
Visualization orbit readout
Latitude
Unknown
Longitude
Unknown
Altitude
Unknown
Speed
Unknown
Apparent Right ascension
Unknown
Apparent Declination
Unknown
Sunlit
N/A
Visualization observer readout
Local Sidereal Time
14:11:32
Azimuth
Unknown
Elevation
Unknown
Doppler factor
Unknown
Orbital elements
Apogee altitude
484.668 km
Perigee altitude
472.935 km
Semi-major axis
6,856.939 km
Eccentricity
0.00086
Inclination
49.1125°
RAAN
1.6566°
Arg. of periapsis
267.7759°
True anomaly
92.31856°
Mean anomaly
92.2206°
Eccentric anomaly
92.26958°
Mean motion
3.8225 °/min
Orbital period
94.18 mins
BSTAR
0.00048088
Loading maneuver chart data...
Computing Atmospheric mass density...
Loading historical data...
Loading historical data...
Loading historical data...
Loading historical data...
Loading historical data...
Loading historical data...
Loading historical data...
Other satellites on launch #82 in the year 2023 (2023-06-09 UTC)

Documentation

Showing up to 5 results
|